Weather observations for the past three days for
Tupelo, Tupelo Regional Airport
Imperial (Metric)
Date Time (cdt) Wind (mph) Vis. (mi.) Weather Sky Cond. Temperature (ºF) Relative Humidity Wind Chill (°F) Heat Index (°F) Pressure Precipitation (in)
Air Dwpt 6 hour altimeter (in) sea level (mb) 1 hr 3 hr 6 hr
Max. Min.
13 13:53 Calm 10.00 Fair CLR 88 62.1 42% 88 29.97 1014.4
13 12:53 Vrbl 3 10.00 Fair CLR 87.1 62.1 87.1 66 43% 88 29.98 1014.9
13 11:53 N 3 10.00 Fair CLR 84.9 60.1 43% 85 29.99 1015.1
13 10:53 Calm 10.00 Fair CLR 82.9 61 48% 83 29.99 1015.1
13 09:53 Vrbl 3 10.00 Fair CLR 81 64 57% 83 30 1015.3
13 08:53 NE 3 10.00 Fair CLR 75.9 63 64% 78 30 1015.5
13 07:53 N 3 10.00 Fair CLR 71.1 63 76% 29.99 1015.2
13 06:53 N 5 10.00 Fair CLR 66 61 66 62.1 84% 29.98 1014.7
13 05:53 N 5 10.00 Fair CLR 62.1 59 90% 29.96 1014.1
13 04:53 Calm 10.00 Fair CLR 63 59 87% 29.94 1013.5
13 03:53 Calm 10.00 Fair CLR 64 59 84% 29.94 1013.4
13 02:53 N 3 10.00 Fair CLR 64 59 84% 29.94 1013.4
13 01:53 N 7 10.00 Fair CLR 64.9 59 81% 29.95 1013.8
13 00:53 N 6 10.00 Fair CLR 64.9 60.1 82 64.9 84% 29.95 1013.9
12 23:53 N 6 10.00 Fair CLR 66.9 60.1 79% 29.97 1014.3
12 22:53 N 3 10.00 Fair CLR 69.1 59 70% 29.96 1014.3
12 21:53 Calm 10.00 Fair CLR 71.1 59 66% 29.96 1014.2
12 20:53 Calm 10.00 Fair CLR 73 57 57% 29.96 1014.1
12 19:53 N 3 10.00 Fair CLR 78.1 55.9 47% 79 29.96 1014.1
12 18:53 N 8 10.00 Fair CLR 82 55.9 84.9 82 41% 82 29.96 1014.1
12 17:53 Vrbl 7 10.00 Fair CLR 84 55.9 38% 83 29.95 1013.9
12 16:53 N 6 10.00 Fair CLR 84 57 40% 83 29.96 1014.1
12 15:53 NE 7 10.00 Fair CLR 84 57 40% 83 29.96 1014.3
12 14:53 N 7 10.00 Fair CLR 84.9 55.9 37% 84 29.98 1014.7
12 13:53 N 12 10.00 Fair CLR 82.9 55 38% 82 29.99 1015.2
12 12:53 NE 9 G 17 10.00 Fair CLR 82.9 53.1 82.9 62.1 36% 82 30.01 1015.8
12 11:53 N 8 10.00 Fair CLR 80.1 54 41% 80 30.02 1016.1
12 10:53 N 9 10.00 Fair CLR 78.1 59 52% 79 30.02 1016.2
12 09:53 N 6 10.00 Fair CLR 73.9 60.1 62% 30.02 1016.3
12 08:53 NE 5 10.00 Fair CLR 72 57.9 61% 30.02 1016.2
12 06:53 N 7 10.00 Fair CLR 62.1 57 62.1 60.1 84% 30 1015.4
12 05:53 N 5 10.00 Fair CLR 61 55.9 84% 29.99 1015.2
12 04:53 N 7 10.00 Fair CLR 60.1 55.9 86% 29.98 1014.8
12 03:53 N 7 10.00 Fair CLR 60.1 55.9 86% 29.97 1014.6
12 02:53 N 7 10.00 Fair CLR 61 55.9 84% 29.98 1014.7
12 01:53 N 8 10.00 Fair CLR 62.1 57 84% 29.97 1014.6
12 00:53 N 7 10.00 Fair CLR 62.1 57 79 62.1 84% 29.97 1014.5
11 23:53 N 6 10.00 Fair CLR 63 57 81% 29.98 1014.7
11 22:53 N 6 10.00 Fair CLR 64.9 57 76% 29.97 1014.6
11 21:53 N 3 10.00 Fair CLR 66.9 55.9 68% 29.97 1014.4
11 20:53 NW 3 10.00 Fair CLR 70 55 59% 29.95 1013.9
11 19:53 N 7 10.00 Fair CLR 73 54 51% 29.94 1013.6
11 18:53 N 10 10.00 Fair CLR 79 51.1 82 79 38% 79 29.93 1013.0
11 17:53 N 8 10.00 Fair CLR 80.1 51.1 37% 80 29.93 1013.0
11 16:53 N 9 10.00 Fair CLR 81 48.9 33% 80 29.93 1013.3
11 15:53 N 9 10.00 Fair CLR 82 53.1 37% 81 29.94 1013.3
11 14:53 N 13 G 16 10.00 Fair CLR 82 53.1 37% 81 29.95 1013.9
11 13:53 N 7 10.00 Fair CLR 80.1 55 42% 80 29.96 1014.2
11 12:53 N 15 G 22 10.00 Fair CLR 79 54 79 64.9 42% 79 29.98 1014.9
11 11:53 N 9 G 20 10.00 Fair CLR 79 55 44% 80 29.99 1015.1
11 10:53 N 12 10.00 Fair CLR 77 55.9 48% 79 29.99 1015.1
11 09:53 N 12 10.00 Fair CLR 75.9 57 52% 78 29.99 1015.3
11 08:53 NE 8 10.00 Fair CLR 72 57.9 61% 30 1015.4
11 07:53 NE 9 10.00 Fair CLR 69.1 59 70% 29.99 1015.1
11 05:53 N 6 10.00 Fair CLR 62.1 57.9 86% 29.97 1014.6
11 04:53 N 7 10.00 Fair CLR 62.1 57.9 86% 29.96 1014.1
11 03:53 N 6 10.00 Fair CLR 63 57.9 84% 29.95 1013.6
11 02:53 N 6 10.00 Fair CLR 64 59 84% 29.94 1013.3
11 01:53 N 6 10.00 Fair CLR 64.9 59 81% 29.93 1013.1
11 00:53 N 7 10.00 Fair CLR 66 60.1 82 66 81% 29.93 1013.1
10 23:53 N 3 10.00 Fair CLR 69.1 59 70% 29.92 1012.7
10 22:53 N 6 10.00 Fair CLR 71.1 57.9 63% 29.91 1012.4
10 21:53 N 5 10.00 Fair CLR 73 60.1 64% 29.9 1012.0
10 20:53 N 6 10.00 Fair CLR 75 60.1 60% 77 29.87 1011.0
10 19:53 N 7 10.00 Fair CLR 78.1 59 52% 79 29.86 1010.7
10 18:53 N 12 10.00 Fair CLR 82 57 87.1 82 43% 82 29.85 1010.3
10 17:53 N 13 10.00 Fair CLR 84 55.9 38% 83 29.85 1010.3
10 16:53 N 12 10.00 Fair CLR 84.9 55 36% 84 29.85 1010.5
10 15:53 N 8 10.00 Fair CLR 86 55 35% 84 29.87 1011.0
10 14:53 N 8 10.00 Fair CLR 86 55 35% 84 29.88 1011.4
Date Time (cdt) Wind (mph) Vis. (mi.) Weather Sky Cond. Air Dwpt Max. Min. Relative Humidity Wind Chill (°F) Heat Index (°F) altimeter (in) sea level (mb) 1 hr 3 hr 6 hr
6 hour
Temperature (ºF) Pressure Precipitation (in)